GFSSE_850_rhum_282.txt.gz
RH
80 76 55 57 73 68 62 54 52 64 76 82 81 77 86 79 74 62 55 56 58 71 63 50 76 80 74 85 44 59 55 79 74 69 72 75 79 78 79 75 80 81 81
67 74 60 61 67 66 68 58 53 53 52 56 72 79 77 78 76 66 59 73 80 74 86 78 79 82 76 73 58 54 53 64 71 69 66 56 69 70 75 78 74 75 72
68 72 66 64 63 61 64 60 60 59 64 69 70 76 85 85 84 84 92 92 86 83 92 73 66 88 83 69 64 63 59 61 58 51 47 49 57 62 74 74 70 75 77
75 81 72 62 64 62 63 64 65 75 81 87 82 90 91 96 95 96 94 92 88 80 93 71 58 83 77 64 62 63 54 58 51 52 64 73 70 72 74 75 79 77 83
79 81 72 62 62 68 68 66 70 83 88 82 77 90 98 100 100 98 98 94 77 59 79 76 53 82 72 63 54 45 43 50 50 57 75 78 81 81 78 82 75 84 85
78 71 72 65 64 74 72 69 70 88 92 85 74 61 93 98 99 97 90 66 35 70 79 81 53 69 80 66 56 50 52 50 46 54 73 76 80 82 81 80 82 82 88
80 72 70 66 68 74 75 73 83 94 92 89 74 77 66 57 64 58 46 31 66 83 85 94 54 55 72 71 77 59 57 53 51 59 72 72 79 84 87 83 87 87 88
80 82 71 69 74 72 72 80 93 94 99 95 64 84 49 52 45 40 36 53 88 85 75 64 44 51 74 76 77 61 52 49 42 56 59 76 85 89 89 83 79 84 84
86 83 74 81 86 83 87 89 90 96 100 77 54 78 100 97 90 75 62 86 94 91 49 41 46 63 77 74 79 72 63 57 50 44 39 56 90 94 81 74 76 76 89
86 80 80 86 89 82 85 84 87 77 81 71 93 96 98 99 99 96 85 96 93 86 39 39 47 71 75 73 73 83 78 70 55 67 62 58 77 56 49 72 77 87 88
89 84 87 88 80 85 81 82 83 90 69 71 100 98 99 98 97 97 97 92 88 69 39 33 51 71 73 70 78 82 83 78 88 83 75 76 45 48 77 92 92 77 79
94 93 92 86 85 87 82 84 84 88 84 80 94 97 97 88 97 84 89 89 86 89 51 35 44 62 66 73 83 84 77 69 89 86 54 63 81 94 98 95 86 74 73
80 96 96 85 82 87 87 87 86 88 87 86 82 98 98 90 96 94 92 89 98 86 82 41 43 59 71 73 83 74 66 87 89 86 81 91 98 95 95 79 85 76 82
80 90 88 84 80 81 86 86 84 81 78 83 70 79 91 91 96 81 97 97 96 94 84 45 54 67 82 85 75 84 68 94 87 82 89 93 95 90 79 78 77 83 76
65 71 73 78 86 80 80 75 87 84 76 80 75 68 66 68 68 97 97 97 97 98 77 44 55 77 87 86 84 82 80 66 81 98 79 89 98 89 73 65 68 70 88
59 68 57 68 80 86 83 83 79 85 79 80 78 74 68 65 52 95 98 100 91 92 79 40 60 80 87 83 78 80 82 74 66 97 89 82 98 92 74 50 52 87 90
49 66 75 63 72 81 84 81 84 81 88 82 78 78 76 67 51 63 93 93 79 56 51 42 63 85 88 84 85 87 81 80 68 81 78 81 95 94 54 62 94 72 98
44 48 74 71 62 72 79 81 79 80 88 85 81 78 78 71 57 50 68 74 75 53 41 43 77 90 85 85 88 84 87 86 81 82 85 82 98 88 71 72 66 94 92
46 45 51 71 61 67 76 81 82 80 82 80 80 80 82 74 54 42 47 62 69 54 44 60 92 94 81 90 86 88 88 87 91 88 86 80 85 78 77 67 83 70 60
37 46 48 55 62 70 73 75 85 87 96 94 85 81 82 80 63 61 60 61 63 54 47 87 100 92 82 89 90 90 95 92 88 86 86 98 90 97 83 73 78 72 66
31 48 52 51 58 66 78 80 80 90 100 100 96 85 84 84 70 81 75 74 76 55 44 86 96 89 89 93 92 96 87 91 86 87 82 84 100 97 91 83 82 79 73
31 47 50 53 53 62 64 78 83 77 97 83 92 85 91 89 81 78 81 78 74 62 60 73 89 89 87 90 93 94 88 84 83 82 97 86 82 100 95 88 88 87 74
35 52 60 50 54 66 50 70 80 85 84 92 99 99 96 90 88 79 80 84 88 70 62 71 77 80 85 96 94 88 86 80 85 81 99 88 95 82 93 97 94 97 82
39 39 53 61 53 51 59 64 80 84 87 90 91 86 98 93 92 87 82 83 92 88 67 69 77 75 80 89 96 92 82 75 88 88 79 83 98 95 100 100 99 95 90
57 54 46 52 64 60 61 71 73 78 70 68 80 81 89 92 96 95 88 89 88 94 76 68 84 94 90 92 88 90 90 79 65 75 75 75 77 79 80 99 100 100 98
80 66 65 69 95 80 74 63 74 70 75 75 78 82 85 90 96 100 99 89 88 93 87 74 74 82 91 93 94 89 86 84 80 68 66 69 74 79 94 85 99 93 99

GFSSE_850_rhum_288.txt.gz
RH
90 91 47 56 64 59 62 66 67 66 66 67 69 82 78 61 48 48 65 74 73 80 61 46 83 84 81 79 66 74 83 79 64 65 76 68 63 70 82 84 85 82 77
85 91 48 46 48 50 59 62 69 67 65 69 72 81 75 51 45 52 66 76 70 70 65 61 60 81 59 66 72 70 66 64 72 71 70 70 77 78 82 81 79 78 86
87 95 54 51 49 50 53 60 69 70 70 72 69 80 74 62 50 52 57 73 76 67 50 69 65 70 63 50 66 68 65 58 52 64 89 100 80 74 76 79 78 83 74
89 94 89 64 55 52 54 62 69 70 74 76 75 74 78 72 65 56 69 86 89 72 60 78 68 75 65 48 52 64 57 52 49 60 85 92 95 74 76 78 86 84 90
94 94 93 72 76 59 54 54 54 60 62 66 70 76 78 81 76 74 86 86 87 80 64 65 69 71 57 55 54 54 53 54 63 90 93 100 94 77 79 84 86 91 92
98 93 92 72 75 64 62 58 57 57 56 58 67 77 90 89 92 94 90 87 89 87 69 52 68 64 54 59 58 56 54 65 95 100 100 86 85 78 79 83 87 89 86
100 96 78 73 70 61 65 61 61 62 70 69 80 91 96 94 96 94 91 90 81 59 66 71 73 64 50 46 48 50 57 65 94 100 100 92 84 81 84 88 82 84 80
99 100 84 74 66 60 66 66 69 71 79 82 82 84 82 99 98 98 96 83 63 75 82 77 63 70 53 47 42 48 52 56 90 99 99 96 87 87 90 82 76 69 63
100 100 98 75 73 66 70 73 72 78 85 88 84 81 84 97 99 99 96 61 72 83 84 81 54 63 84 58 49 49 51 55 91 100 99 96 91 90 89 74 70 64 53
99 100 99 89 78 84 83 77 78 86 92 93 82 90 87 99 100 98 63 62 74 94 94 64 50 60 74 57 48 42 47 52 82 97 100 97 88 86 87 70 70 70 66
95 93 99 90 89 88 92 86 84 94 95 93 86 89 96 92 95 86 65 77 88 89 82 50 50 70 83 68 63 57 53 77 78 82 87 95 88 84 85 61 75 70 58
95 92 92 98 98 94 98 90 99 99 95 82 90 95 89 91 90 90 86 91 88 87 65 48 61 72 84 88 80 74 83 82 79 80 87 80 56 77 78 78 70 59 54
93 91 87 92 98 94 92 98 97 94 87 88 91 92 94 98 98 94 96 90 87 88 56 58 72 90 85 87 90 85 80 81 80 81 90 65 80 86 90 80 65 58 43
93 91 94 84 81 88 86 90 88 83 84 84 92 94 92 91 96 87 98 90 98 91 89 86 89 91 87 85 84 81 78 88 82 82 70 98 98 97 86 74 74 66 69
99 94 91 82 90 90 85 84 81 76 80 78 86 95 93 92 95 93 100 96 84 80 87 56 84 88 86 84 82 85 92 95 100 100 94 100 100 98 79 73 55 50 87
98 95 95 82 92 88 82 81 82 80 80 73 74 81 92 91 89 99 92 86 86 85 85 72 83 87 85 85 87 90 92 79 90 87 88 100 100 93 80 55 52 47 84
85 89 97 88 92 90 88 86 82 78 78 71 70 76 73 88 92 97 83 85 86 92 88 85 74 91 89 87 87 91 94 81 82 90 100 100 99 96 62 67 56 76 86
75 93 70 95 86 92 92 89 87 83 76 73 72 72 75 72 74 93 90 97 97 94 95 84 58 85 94 93 94 94 96 86 84 97 93 96 98 82 70 66 84 82 87
80 70 66 60 74 78 84 87 84 82 83 82 76 76 75 78 75 82 84 97 98 98 96 98 69 90 94 96 80 78 81 86 96 88 91 89 95 84 73 66 82 91 95
72 70 76 58 56 65 72 82 85 86 89 88 82 81 80 77 82 77 93 94 91 91 90 79 82 86 92 87 81 81 84 85 86 95 92 92 92 84 79 71 71 88 78
65 63 59 96 79 60 75 81 87 85 98 95 94 87 82 80 81 80 77 79 76 86 80 71 54 80 94 88 85 81 86 87 84 81 79 86 90 81 82 76 92 96 70
42 53 61 63 92 54 62 70 76 73 83 80 82 87 86 86 82 80 57 52 71 80 81 59 46 85 95 85 88 84 87 84 89 84 80 85 87 82 96 90 83 76 96
37 32 33 53 83 83 52 70 87 76 81 92 99 93 92 91 85 86 62 45 58 67 66 61 48 68 80 87 82 81 85 77 78 86 80 80 86 96 99 99 86 96 81
58 46 36 35 68 98 58 69 82 72 76 87 79 80 88 95 90 89 80 59 59 60 66 64 53 74 85 87 82 85 79 75 79 85 82 74 81 81 99 92 94 94 97
79 76 56 39 45 92 83 76 94 76 73 74 76 78 82 99 97 92 93 75 68 65 67 64 53 92 95 95 84 85 83 82 72 78 73 93 73 80 85 98 96 99 98
97 93 84 63 81 100 99 98 99 97 84 86 82 82 81 98 100 99 96 90 83 72 71 70 62 56 89 96 91 90 79 80 86 84 77 81 85 90 80 91 98 98 94

GFSSE_850_rhum_291.txt.gz
RH
77 68 41 53 61 68 69 70 70 68 68 66 70 70 68 50 45 51 63 69 63 49 58 82 81 81 82 75 63 65 41 46 75 64 45 51 69 79 82 82 84 81 83
80 63 41 50 56 61 68 66 69 66 63 67 74 81 68 50 48 60 72 69 71 63 55 51 78 74 69 74 82 76 70 68 74 69 70 72 77 80 86 84 89 84 84
80 83 40 48 50 55 62 64 68 64 65 69 73 80 65 49 49 63 72 70 72 52 53 67 70 62 61 68 66 65 69 72 67 77 89 82 72 75 79 83 82 74 63
82 92 58 44 47 50 59 61 68 68 69 73 70 84 64 52 49 57 63 78 75 56 74 62 57 66 51 64 66 66 58 51 71 82 87 95 93 78 79 85 86 83 75
83 93 94 46 46 48 52 61 68 70 72 75 74 80 78 70 59 57 75 89 85 73 61 64 66 65 54 52 62 57 50 49 81 84 83 91 91 81 83 88 86 82 73
82 87 87 52 52 51 54 62 67 70 73 73 67 75 80 83 69 66 87 86 85 78 62 59 64 67 57 58 54 55 55 75 86 86 87 86 85 84 85 78 78 77 75
81 83 86 65 72 58 55 54 56 58 58 59 61 70 83 91 90 93 90 88 88 77 56 59 65 60 50 60 58 55 62 84 91 93 93 89 85 80 86 78 78 74 70
83 86 86 72 76 69 62 63 58 57 55 59 71 84 92 93 96 97 93 89 82 63 77 73 66 59 46 47 54 54 58 88 92 95 93 87 88 87 84 77 70 58 50
87 88 94 81 76 72 65 65 61 66 71 76 80 84 87 87 96 92 94 90 74 76 82 73 68 60 44 40 37 40 53 79 91 89 97 90 91 92 80 66 61 57 75
88 92 96 94 81 74 71 71 68 71 79 82 81 82 83 79 89 96 95 82 77 80 87 80 59 54 78 43 37 41 47 75 83 90 94 96 91 90 80 63 60 60 62
93 95 95 98 94 92 82 75 79 81 80 85 89 85 80 78 92 96 91 77 73 83 88 56 56 61 71 45 39 35 46 66 78 91 86 89 89 89 76 58 64 52 55
97 99 96 96 98 99 95 84 88 91 93 93 90 70 76 88 95 99 84 79 81 86 82 58 54 78 77 62 52 46 68 70 70 79 88 79 86 88 64 70 58 48 55
100 98 98 98 98 100 100 94 96 94 93 99 93 90 85 81 85 89 84 90 86 87 83 60 60 72 83 80 81 78 73 70 72 72 81 67 63 80 76 67 57 49 75
99 100 100 95 96 96 93 98 97 98 98 90 89 87 86 75 91 86 87 88 89 81 92 91 86 84 78 79 79 76 73 74 71 74 73 62 88 88 80 70 68 51 78
98 99 94 96 93 96 100 98 90 80 89 86 89 90 87 88 94 82 89 95 93 87 82 84 81 80 78 76 74 74 73 79 76 87 46 93 97 94 77 68 52 67 84
94 99 98 98 90 90 86 84 82 85 80 81 90 92 91 86 83 83 85 84 98 93 88 76 79 79 77 77 76 80 87 97 93 93 79 97 100 97 78 53 50 74 86
98 97 99 99 93 92 82 84 83 79 76 76 76 85 86 87 88 85 89 98 97 79 87 80 78 79 78 77 78 81 85 88 98 88 86 98 100 92 71 61 46 77 93
97 99 97 98 95 93 91 90 85 83 80 78 76 71 76 83 89 88 93 98 79 82 82 88 83 81 80 81 80 83 86 91 95 94 99 100 100 80 73 62 42 81 96
95 100 99 99 99 94 96 94 92 89 85 82 80 74 70 71 82 91 85 76 81 86 84 86 86 86 86 84 84 90 90 95 94 97 99 100 98 77 92 64 50 92 94
91 95 99 99 99 98 98 98 95 96 89 87 83 82 77 71 71 85 90 89 86 91 91 92 83 88 90 88 87 77 82 86 95 92 91 94 89 84 85 65 68 84 98
86 96 97 96 96 96 96 100 100 99 86 99 96 82 86 81 75 77 86 90 86 96 96 96 94 88 89 95 80 79 83 82 80 93 99 96 99 99 80 71 65 75 76
70 90 96 97 94 77 71 84 90 87 82 86 91 86 83 83 81 76 69 92 86 92 94 91 94 95 87 100 87 80 86 81 81 80 76 92 89 97 92 73 94 96 83
73 75 74 89 93 89 79 79 78 92 96 97 100 100 96 88 84 82 75 67 80 91 89 82 94 90 89 87 88 80 80 80 79 79 78 82 86 86 89 86 90 91 82
86 79 70 78 80 93 89 93 96 95 98 99 94 99 100 94 90 90 81 66 65 84 89 82 79 81 85 85 85 82 77 70 73 85 84 78 76 84 88 95 97 93 87
100 99 76 66 77 82 100 85 99 100 88 96 70 80 99 99 96 95 82 80 59 74 86 74 70 62 82 81 75 76 79 73 74 67 77 90 87 76 91 93 84 98 92
100 100 94 85 68 86 92 99 99 98 98 96 80 92 100 100 98 96 87 84 71 61 59 50 58 57 77 88 79 83 74 73 68 72 74 78 86 77 74 75 85 88 89

GFSSE_850_rhum_294.txt.gz
RH
81 50 57 58 65 68 71 76 71 71 68 65 67 63 52 39 42 54 55 53 51 80 82 83 81 80 55 34 28 28 68 60 40 39 73 80 80 78 82 77 80 88 84
75 49 55 59 63 67 69 73 70 68 66 65 67 67 53 41 47 62 62 63 64 56 64 79 79 65 75 81 74 57 75 74 77 77 78 80 84 81 81 78 85 86 67
73 49 52 58 59 65 68 70 68 66 66 65 77 76 58 44 52 68 67 70 56 36 61 74 75 57 64 67 68 73 70 76 78 72 76 74 78 78 82 83 79 62 51
80 48 48 58 55 63 64 66 67 67 69 71 77 82 58 46 61 69 68 75 57 52 55 50 71 59 64 61 58 59 76 88 94 95 79 78 79 79 84 89 76 67 55
86 52 44 55 52 58 64 61 69 66 69 73 75 84 64 51 53 58 72 80 76 64 48 46 56 62 64 66 63 54 87 92 86 80 82 84 84 86 91 74 73 71 64
87 78 41 51 54 51 60 62 67 68 71 73 74 77 78 70 61 60 81 83 77 70 56 52 52 56 56 62 56 55 78 90 85 77 82 90 85 91 79 72 71 69 63
87 85 77 47 46 48 53 61 68 70 71 72 72 74 78 84 75 74 88 87 84 74 56 55 56 58 54 54 58 79 77 79 81 82 88 91 90 87 76 73 66 56 53
84 88 83 57 50 52 54 60 64 63 67 65 66 69 74 87 88 92 91 90 88 65 71 62 62 50 48 56 55 92 81 75 80 84 93 88 92 85 73 65 55 46 77
82 84 84 73 73 62 58 56 57 58 57 56 65 80 93 95 92 96 89 94 81 75 74 72 67 53 39 47 52 80 91 77 72 85 88 91 95 84 65 55 53 64 74
80 84 84 82 77 79 70 66 63 58 57 62 72 86 90 92 95 92 93 90 82 78 79 85 71 54 43 34 37 50 87 73 76 85 94 93 95 85 68 50 52 56 61
85 83 85 80 76 82 84 72 68 72 71 74 80 81 82 81 83 89 94 91 81 79 86 65 60 51 60 35 27 33 80 82 83 77 85 91 92 86 66 48 52 52 57
83 85 86 86 83 83 84 79 76 79 80 84 79 79 81 80 76 75 86 91 80 80 77 51 58 65 63 31 25 34 56 65 75 86 86 85 92 88 55 60 43 48 84
90 87 88 96 86 86 87 82 82 86 82 85 89 83 76 83 81 84 92 85 83 89 82 58 52 69 76 59 47 63 61 68 70 82 83 76 87 65 70 54 39 60 88
93 86 88 91 94 89 93 85 84 81 84 88 93 82 68 82 87 90 87 84 85 84 88 57 49 80 80 81 71 75 73 72 73 74 78 72 65 74 71 67 48 79 87
82 92 87 89 87 92 96 97 96 85 89 88 87 83 76 76 80 90 80 85 91 87 88 54 53 78 80 78 78 73 73 75 71 75 77 52 82 86 71 50 44 69 92
69 84 86 87 95 93 96 98 98 96 84 85 84 78 76 68 63 78 83 85 88 83 83 81 83 82 79 78 75 72 78 75 81 75 49 88 96 95 66 43 49 79 87
66 73 83 84 94 94 96 96 98 89 83 84 77 71 74 81 78 79 86 87 91 85 82 82 82 81 78 78 77 82 81 78 84 81 78 96 96 91 64 49 46 81 90
37 65 78 83 87 94 92 83 79 81 88 84 74 71 69 79 70 84 87 84 89 82 85 77 79 80 79 77 79 80 82 85 93 85 90 98 99 83 69 54 41 89 97
29 29 60 84 86 87 98 81 82 84 86 82 76 78 72 75 68 84 82 81 86 92 79 80 80 81 80 80 78 80 83 88 85 96 95 97 96 77 69 60 42 85 97
33 33 33 67 84 88 99 99 88 82 84 84 80 80 79 79 76 77 78 80 91 91 80 78 78 82 83 82 80 84 88 93 95 91 99 100 99 79 71 63 54 80 97
55 79 83 79 80 88 92 99 100 98 88 87 84 81 81 78 81 85 69 76 88 80 78 81 82 74 84 79 83 85 87 84 96 100 98 99 99 90 82 67 60 66 82
69 73 88 98 100 96 88 92 99 99 97 83 84 88 85 81 80 85 78 68 73 80 83 86 89 81 89 86 88 80 84 85 84 90 97 98 100 99 88 76 81 72 81
90 85 79 84 94 99 99 96 100 99 100 100 98 100 97 94 84 82 81 74 70 87 88 90 92 86 86 90 86 74 85 81 79 82 88 98 100 100 99 85 100 84 84
93 96 94 81 82 85 96 99 98 99 98 100 99 98 99 100 97 87 85 82 81 73 77 86 88 82 82 88 90 79 75 76 76 80 78 77 80 89 98 90 95 98 99
91 97 97 80 72 83 91 99 100 100 99 100 98 100 100 100 99 100 95 86 83 81 64 68 76 76 89 80 81 86 79 75 75 73 78 79 80 78 82 89 90 89 94
81 92 97 99 80 71 87 98 100 100 97 100 99 99 100 100 100 98 97 94 87 75 62 52 72 75 82 78 73 74 70 73 70 73 75 75 69 69 73 84 91 98 96

GFSSE_850_rhum_297.txt.gz
RH
84 51 63 66 68 72 71 71 68 68 68 69 65 50 36 36 44 42 42 76 86 74 61 30 37 30 35 31 24 48 30 29 60 81 79 80 78 78 77 77 71 68 81
77 62 56 64 68 67 71 71 66 64 66 66 63 53 38 40 50 52 61 69 57 78 84 84 81 27 34 24 53 66 63 63 77 82 84 86 79 79 84 81 59 52 63
72 64 52 64 70 68 69 67 66 63 66 68 66 56 40 42 58 60 72 57 35 51 80 75 73 81 74 63 70 71 77 80 82 83 83 81 81 80 83 65 52 35 31
73 65 49 66 68 68 69 65 64 62 66 74 77 62 43 44 59 68 68 56 45 36 46 70 54 66 66 71 72 86 89 87 80 79 76 77 84 82 74 69 60 56 41
77 66 49 64 68 66 67 67 64 64 68 71 79 73 51 46 58 62 74 68 58 46 37 51 57 63 61 65 80 89 89 88 79 77 81 81 92 93 77 68 64 59 47
81 66 51 62 67 65 64 66 68 66 70 70 74 85 65 53 56 59 79 76 68 57 42 44 53 57 65 59 81 89 87 82 80 81 88 86 95 85 72 67 61 53 29
86 78 52 55 65 63 63 63 70 68 68 71 74 78 76 73 64 61 87 80 76 60 52 40 53 54 64 56 61 90 84 81 81 82 88 88 91 82 70 60 52 36 24
83 83 56 59 58 62 62 61 69 69 69 72 73 75 78 81 77 75 90 87 83 64 58 39 50 48 56 62 64 70 76 77 77 81 95 92 94 80 63 53 44 33 67
84 87 82 54 51 55 59 63 67 70 71 69 66 67 78 90 89 90 91 90 83 72 68 52 45 44 52 71 77 73 76 74 76 88 93 93 87 67 57 46 40 92 93
80 86 84 85 56 56 62 63 63 60 63 61 56 60 86 95 98 100 91 86 88 78 73 70 52 39 39 58 96 71 80 77 76 88 93 95 90 72 57 41 45 47 85
78 80 86 87 86 72 66 64 61 60 60 64 73 82 93 92 97 98 92 91 88 81 82 69 62 40 30 41 74 90 70 80 79 82 93 97 88 76 57 43 39 58 86
89 86 82 84 85 81 82 78 84 70 69 70 79 86 86 84 84 86 87 88 87 82 88 56 56 43 44 28 38 88 82 76 82 77 82 91 93 75 52 46 34 75 84
96 94 90 82 86 78 82 86 84 80 76 78 80 80 81 85 85 82 80 82 84 84 85 61 57 66 48 26 26 77 72 74 64 81 82 81 93 66 56 41 48 85 88
47 81 85 88 85 85 80 80 80 78 79 77 79 76 77 79 77 68 77 81 87 87 87 74 44 65 70 48 56 50 57 59 62 74 75 76 75 64 61 48 55 82 90
38 42 72 82 88 89 87 84 83 81 80 81 81 78 78 70 70 82 81 86 88 86 83 80 45 81 82 80 60 68 74 74 72 74 74 76 70 71 65 40 67 81 86
29 32 29 70 84 89 91 88 84 88 82 87 86 82 76 70 66 81 82 82 82 87 88 65 52 82 81 81 74 76 72 75 70 75 77 71 71 75 62 37 54 85 86
21 22 26 25 83 86 87 92 87 84 91 87 86 83 73 74 72 69 80 81 87 91 85 72 78 81 81 78 77 72 78 80 79 82 71 64 93 93 59 39 56 84 81
31 58 36 25 24 76 87 90 88 77 83 93 90 82 76 71 72 66 80 82 82 84 82 79 84 82 79 79 73 76 80 83 76 78 72 91 94 80 60 58 75 86 86
40 32 90 65 26 26 72 86 87 80 75 83 91 86 81 69 72 70 77 82 85 85 82 81 83 82 79 79 80 79 78 75 91 87 89 91 98 81 67 54 91 91 90
53 63 98 99 94 77 51 82 90 89 83 81 94 88 82 71 72 74 72 84 83 85 79 84 80 82 80 80 78 81 84 81 86 91 86 96 99 82 72 58 89 93 90
64 69 89 100 100 100 96 91 95 99 93 82 95 91 81 74 74 76 68 76 81 84 79 83 72 82 80 79 78 79 82 89 95 95 90 100 100 82 74 63 63 72 82
71 76 79 88 97 99 99 100 100 96 94 84 81 93 84 78 80 80 74 71 72 87 86 84 80 76 81 83 79 84 85 90 96 93 99 100 99 88 89 71 66 82 82
62 72 76 78 87 96 100 100 100 100 99 96 98 100 93 86 82 82 77 73 76 82 91 91 81 78 81 84 82 84 92 86 89 93 93 96 98 98 90 84 74 80 81
52 59 69 76 77 82 87 97 100 100 100 98 89 94 100 95 92 91 84 79 78 79 90 84 78 80 82 82 85 85 77 64 81 88 97 99 96 97 100 95 84 82 89
58 51 57 65 70 72 71 79 93 98 100 100 95 86 93 99 99 99 93 88 82 78 76 82 83 83 89 76 84 88 85 70 66 70 84 88 94 98 99 100 94 99 99
56 57 51 54 60 64 70 70 75 90 82 96 100 93 90 95 99 100 100 92 91 84 72 76 90 89 91 90 79 76 83 73 77 69 64 77 78 79 78 90 97 99 98

GFSSE_850_rhum_303.txt.gz
RH
76 66 71 77 74 77 71 66 62 70 67 43 34 28 27 27 23 56 29 23 25 33 38 42 70 70 72 37 60 22 45 81 76 78 80 76 63 63 66 58 62 81 86
75 55 66 74 77 76 72 66 62 68 58 45 36 29 39 34 46 75 65 58 27 30 34 28 37 49 31 26 22 31 64 74 77 78 78 76 57 50 44 53 58 67 48
77 56 61 68 77 76 70 65 65 68 65 55 40 34 42 39 36 38 68 80 82 87 34 24 24 23 41 34 36 61 76 80 76 77 81 81 69 45 32 24 25 38 39
79 70 60 63 74 76 73 67 67 66 68 63 45 38 46 45 47 45 31 52 80 75 76 74 27 40 60 61 66 75 79 86 81 76 80 82 69 58 54 47 35 21 20
85 78 65 62 72 76 76 71 63 62 62 64 51 41 52 55 57 52 38 23 33 68 66 71 47 57 69 75 75 75 74 74 81 81 86 84 75 72 60 50 36 22 36
87 87 71 65 68 74 74 73 69 61 66 67 59 44 68 58 59 57 48 46 30 38 57 62 64 67 75 83 82 76 74 77 81 87 95 93 81 69 56 41 32 58 90
90 91 74 68 68 73 76 73 70 64 67 75 71 55 59 69 58 64 58 57 49 27 60 57 66 68 70 74 73 76 79 80 86 92 98 96 91 72 54 29 40 86 90
93 91 80 70 72 69 77 77 73 68 70 72 80 73 68 71 59 72 68 67 60 42 32 59 63 62 64 67 72 75 74 76 85 92 91 90 95 61 34 31 67 87 86
77 80 83 70 72 73 71 74 76 74 69 72 75 82 80 78 70 68 80 75 68 60 32 41 62 68 64 68 71 70 62 82 81 93 90 84 72 62 39 34 82 96 86
88 88 92 82 63 72 70 71 71 74 73 74 76 78 82 81 83 74 87 82 77 71 58 32 48 66 65 62 72 66 68 81 85 86 90 81 82 74 44 58 83 86 80
92 87 88 97 85 62 60 65 67 72 74 78 77 79 79 84 88 86 90 86 83 82 75 55 37 55 66 69 72 76 73 79 94 85 90 91 88 69 40 64 85 84 81
57 91 96 99 98 93 83 64 63 70 77 79 74 76 75 75 84 80 96 94 87 82 84 72 42 41 61 74 78 84 79 81 86 79 86 91 88 72 41 43 75 89 86
44 74 86 93 98 100 96 91 75 68 75 77 74 70 63 70 88 81 99 99 97 88 86 79 60 39 50 72 73 84 86 81 80 79 77 83 94 60 38 39 69 86 86
34 49 72 70 80 99 100 95 91 85 80 80 74 68 71 89 97 96 98 97 92 88 85 80 75 42 37 63 88 74 86 84 80 82 79 86 89 65 39 42 77 94 80
29 32 37 56 81 70 80 99 98 91 90 83 78 67 80 82 80 78 80 86 91 89 88 85 77 48 40 40 76 93 78 82 75 80 76 87 86 75 48 56 77 87 82
32 33 37 44 60 89 88 89 99 100 94 91 87 75 70 82 85 81 80 85 90 89 88 85 80 48 47 34 44 86 86 82 71 67 59 65 80 67 58 61 81 87 81
24 26 34 36 49 77 93 92 86 98 99 99 93 86 76 79 85 86 82 80 78 82 90 84 88 56 49 48 44 72 77 74 66 59 62 65 73 63 64 62 77 89 77
24 22 23 31 42 50 79 83 78 83 96 98 100 92 85 81 86 89 84 77 74 80 88 86 90 76 68 64 70 66 71 69 65 76 77 77 76 64 60 49 69 91 76
26 25 24 23 24 39 48 80 83 80 78 99 100 100 92 84 85 93 88 77 79 82 92 94 87 76 78 81 73 77 76 74 76 77 83 80 78 64 63 47 77 91 91
27 25 24 23 24 24 38 58 70 96 93 92 100 100 100 97 85 86 93 82 85 85 93 92 81 70 87 84 83 81 78 80 79 84 86 80 60 73 82 48 81 88 92
24 23 22 22 21 22 24 31 48 57 90 91 98 99 100 99 97 87 100 91 86 86 84 87 85 75 84 85 83 81 79 82 81 84 86 79 74 84 91 54 73 90 96
23 22 22 23 23 23 23 26 37 61 69 84 85 87 94 100 100 94 88 97 91 89 90 87 87 82 81 84 76 81 80 89 77 83 83 96 92 97 99 74 63 91 95
20 21 21 22 26 26 25 23 23 29 47 64 80 86 99 100 100 100 96 92 95 92 86 88 87 82 84 81 79 77 77 81 86 82 88 91 96 100 98 90 65 81 96
27 22 21 22 23 29 31 29 26 25 27 41 59 76 82 99 100 99 100 100 98 95 88 82 85 84 83 83 82 79 76 74 81 91 83 86 100 100 99 97 82 74 94
33 35 33 27 25 28 32 37 37 30 26 24 32 50 67 80 94 100 99 100 100 98 94 83 82 87 84 75 82 82 77 78 78 77 92 86 100 98 100 100 91 72 75
33 38 45 43 38 34 33 37 42 45 35 24 22 27 39 62 77 96 100 100 100 97 96 90 78 84 84 77 74 80 76 78 80 78 75 72 90 100 94 98 91 87 76

GFSSE_850_rhum_309.txt.gz
RH
76 62 79 74 75 78 81 80 82 81 76 60 50 44 34 34 54 46 37 37 40 62 70 67 60 45 33 40 55 67 69 76 74 65 70 66 71 78 79 79 80 82 81
85 66 76 78 75 75 79 78 77 82 75 43 35 30 32 33 52 31 32 30 41 48 72 59 54 33 27 36 49 65 65 71 68 57 54 52 61 70 77 78 87 85 80
86 68 76 78 76 77 75 75 68 74 60 38 32 32 36 57 56 51 27 26 26 30 31 33 42 21 18 29 60 71 70 69 63 51 47 35 39 48 56 49 45 80 80
89 72 70 79 80 78 76 74 70 69 56 43 34 40 39 51 79 81 78 44 27 22 20 24 24 21 22 51 73 79 74 73 71 68 52 44 42 37 30 21 23 45 76
87 85 74 72 78 80 79 75 72 70 62 55 40 46 61 55 75 46 81 91 71 30 22 32 28 28 43 66 79 81 78 73 73 72 58 51 51 46 39 28 22 51 81
98 97 93 79 77 82 82 77 75 74 70 65 48 46 68 61 50 36 34 71 75 79 72 89 59 54 57 72 75 78 75 71 72 74 63 59 53 41 35 32 28 54 74
98 100 100 94 81 81 85 84 81 78 75 70 58 54 64 75 61 40 32 23 57 72 66 58 76 69 69 71 70 67 66 70 76 80 69 63 53 34 63 80 82 65 64
92 99 100 98 86 87 83 78 81 79 76 75 70 64 62 65 67 58 49 36 27 48 62 64 72 79 77 73 69 67 69 74 80 83 75 68 47 30 73 83 90 90 96
94 94 94 98 92 90 87 91 82 79 75 73 81 78 69 67 75 70 61 54 40 35 52 65 71 82 83 76 69 69 64 68 80 81 75 70 59 35 69 85 79 72 90
90 85 86 98 89 87 87 90 94 84 81 78 76 76 80 78 84 73 76 70 61 40 34 54 66 69 71 69 70 68 62 68 78 82 79 75 69 45 74 90 83 78 87
84 88 88 86 98 91 89 89 94 95 84 82 81 82 82 80 82 86 76 79 77 64 45 34 44 59 64 66 74 72 62 65 76 78 80 71 74 54 60 82 82 84 81
65 74 84 90 90 96 98 93 87 93 92 84 79 78 83 83 82 82 82 83 83 80 77 66 45 37 55 66 71 70 66 64 84 77 76 70 75 67 60 89 75 83 81
39 49 64 78 86 92 99 99 95 92 92 89 84 83 81 81 83 82 86 87 90 84 82 80 76 54 37 54 68 72 68 65 86 93 80 76 77 78 59 84 89 85 85
32 34 40 53 68 80 86 98 100 99 88 82 80 83 87 80 80 77 80 88 91 91 85 83 83 77 54 44 62 70 74 70 72 81 81 85 79 79 44 79 86 84 79
26 26 27 32 40 58 77 85 87 90 99 96 72 89 97 94 87 81 80 80 87 98 92 90 86 83 75 53 52 72 79 78 75 80 84 83 85 84 61 56 78 77 79
22 22 21 21 24 32 53 79 86 84 86 98 100 100 99 100 96 92 82 77 85 86 94 93 89 87 84 74 53 63 80 80 82 76 79 82 80 87 84 49 72 90 72
21 20 18 18 18 18 22 37 67 87 84 84 90 100 100 100 98 100 86 80 84 80 85 97 96 93 89 81 62 55 80 81 81 85 81 77 71 84 84 75 54 89 93
20 19 18 17 16 15 15 15 20 42 76 86 88 95 100 100 100 100 99 89 85 82 80 90 99 97 90 82 65 47 56 87 85 86 85 76 71 74 69 71 65 78 97
18 17 16 15 14 14 13 13 13 14 20 46 80 90 94 98 100 99 89 100 97 94 88 90 100 99 92 84 73 51 48 64 91 84 77 73 65 65 60 67 64 76 99
18 16 15 14 13 12 12 11 11 11 11 13 23 59 83 90 88 97 100 94 100 99 99 99 98 100 94 84 86 70 45 45 84 90 86 73 64 70 72 69 65 72 95
16 14 13 12 11 11 11 11 10 10 10 10 12 15 29 66 90 98 96 94 100 100 100 99 100 100 96 86 84 76 76 73 66 82 80 72 65 73 75 75 67 63 85
17 15 13 12 11 10 10 10 10 11 11 11 11 12 13 19 47 82 98 99 100 100 97 97 100 100 99 91 88 83 91 87 80 73 76 74 71 76 81 84 69 63 81
22 20 19 18 16 14 13 10 8 8 9 10 10 9 10 11 14 32 65 92 96 100 99 100 99 100 100 92 90 84 86 86 81 78 74 75 79 79 82 81 74 73 75
28 26 25 24 23 22 22 19 17 14 11 11 9 9 10 10 11 13 19 45 77 92 99 99 100 94 100 99 98 89 78 75 81 81 77 80 81 80 84 84 71 73 87
31 31 29 27 29 30 29 30 28 26 23 16 15 12 10 9 10 12 12 15 31 57 83 99 100 100 98 100 99 90 82 82 73 69 93 79 82 80 80 84 73 71 96
38 37 35 33 34 34 34 34 35 34 33 32 25 22 16 12 9 11 12 13 14 23 44 77 100 100 100 100 100 100 89 87 82 76 75 76 81 80 74 70 81 75 82

GFSSE_850_rhum_315.txt.gz
RH
89 91 82 79 78 85 84 83 78 77 72 65 58 45 33 45 48 34 37 54 75 81 79 47 32 50 70 69 74 66 66 66 64 62 69 73 76 80 83 84 92 72 78
99 92 86 84 80 84 85 83 81 80 80 67 57 38 33 40 52 38 33 51 68 86 83 60 33 46 71 67 73 70 66 61 59 66 71 71 74 79 86 86 86 78 84
97 97 94 88 86 82 85 84 81 78 78 55 39 34 35 54 37 36 31 30 44 46 63 66 62 84 69 72 78 71 61 50 51 55 90 87 76 81 78 77 70 73 83
99 75 79 87 88 91 87 83 79 75 70 45 37 35 46 62 73 47 32 30 37 48 37 54 37 50 82 84 73 70 61 46 44 68 76 89 66 55 48 54 58 66 87
99 86 68 71 76 80 90 90 82 75 68 60 46 40 50 59 57 62 56 34 33 26 23 34 30 31 79 81 74 70 66 52 63 86 91 87 56 32 27 24 45 61 86
99 96 88 81 66 69 87 91 89 80 75 68 60 57 59 59 64 54 77 78 38 30 26 26 47 70 75 78 73 71 71 70 81 95 69 61 59 38 31 28 24 61 73
100 100 96 93 96 100 98 88 91 93 88 78 71 63 62 66 66 59 41 64 72 64 56 60 61 68 67 78 75 70 70 74 94 94 95 79 43 38 44 31 32 40 70
100 100 99 96 92 93 99 97 99 93 93 89 81 72 70 68 70 65 49 33 38 61 70 71 62 62 69 78 80 70 67 70 91 94 98 76 40 66 71 51 42 36 70
98 99 99 100 96 92 95 97 95 89 94 96 89 84 77 80 77 73 66 49 33 35 55 59 71 68 66 74 75 71 69 72 86 98 97 70 47 74 81 86 79 41 68
83 91 89 94 99 94 91 89 90 91 88 89 94 93 94 87 81 76 78 64 56 41 34 39 62 72 75 76 84 79 75 75 82 90 98 88 52 59 77 76 83 73 82
57 65 82 88 91 96 94 89 88 86 92 86 90 91 98 94 89 82 78 77 72 62 43 37 52 69 82 82 79 74 74 64 86 84 90 81 61 62 76 81 63 77 82
30 34 49 68 82 90 95 95 91 87 91 90 88 88 90 94 99 98 94 84 79 77 76 53 47 52 69 89 80 75 70 76 75 77 88 83 66 63 65 86 85 64 77
28 29 31 37 54 72 86 94 100 99 94 90 90 88 87 86 91 99 99 90 88 82 80 72 51 48 47 61 82 79 89 81 71 72 90 77 68 65 67 82 86 80 72
25 25 25 26 30 41 60 79 88 99 100 100 97 90 88 87 87 86 98 99 94 89 83 81 74 59 54 66 77 80 79 70 68 72 76 74 65 67 72 69 88 82 81
23 22 22 22 22 24 29 42 70 85 97 100 100 100 97 94 94 88 89 97 100 98 93 90 85 82 71 72 83 80 78 74 68 69 80 80 69 69 75 70 64 82 83
20 20 18 18 18 18 19 21 28 45 69 82 96 100 100 100 96 96 97 97 98 100 93 93 95 95 83 76 80 66 83 80 76 73 82 78 70 72 83 81 59 64 77
18 17 16 16 15 15 15 15 15 16 21 35 50 73 93 99 100 100 99 97 99 98 100 97 98 100 89 84 85 78 83 84 80 80 75 88 80 73 82 84 78 63 66
18 17 15 14 13 13 12 12 12 12 12 12 14 21 36 58 82 95 99 100 99 100 99 100 95 96 84 91 93 81 82 83 79 81 83 86 99 77 78 75 76 78 80
18 16 15 13 12 11 11 10 10 10 10 10 10 10 10 13 23 48 73 92 98 98 98 95 100 99 94 91 93 92 87 84 74 75 86 86 98 89 86 81 73 70 80
18 15 13 11 10 9 9 9 8 8 8 8 8 8 8 9 9 9 17 48 82 93 99 100 100 100 100 89 98 99 94 89 80 75 77 94 88 97 84 99 78 67 75
21 15 13 11 10 9 8 8 8 8 8 8 8 7 7 7 7 8 8 9 19 62 88 97 100 100 99 100 99 100 97 90 83 69 62 81 83 79 94 87 88 80 64
26 18 14 13 12 11 9 9 10 8 10 12 10 8 7 7 6 6 6 8 8 10 37 84 98 96 100 99 100 100 100 98 94 82 68 49 52 81 82 92 88 85 85
28 20 19 17 17 15 13 11 10 14 14 12 9 8 7 7 6 6 6 5 6 8 9 23 62 90 98 99 99 99 99 98 93 86 77 76 55 56 79 88 74 79 92
34 28 22 20 19 19 18 17 18 26 27 28 20 12 11 12 12 9 7 7 6 6 8 9 15 40 75 94 100 100 99 87 96 93 89 82 76 67 65 80 83 71 70
37 36 30 26 24 22 22 25 29 34 48 32 25 32 19 16 16 15 14 12 11 8 6 8 10 12 29 45 84 100 100 99 94 95 89 94 91 79 71 80 76 76 62
45 43 35 30 30 30 29 32 38 38 40 44 47 41 40 30 22 24 25 23 20 18 16 11 9 10 12 20 36 76 100 98 100 100 86 86 80 85 75 82 92 88 75

GFSSE_850_rhum_318.txt.gz
RH
96 99 93 86 86 89 86 84 80 79 76 66 56 40 33 50 46 30 48 71 80 82 54 39 39 74 75 68 67 63 61 53 56 67 67 70 75 77 83 78 78 78 80
100 91 89 90 85 88 88 86 84 82 78 62 50 34 34 51 45 36 38 66 83 88 65 39 48 73 71 66 72 75 71 58 61 70 73 75 76 81 84 76 75 82 84
100 90 74 90 86 82 86 87 84 78 76 50 38 34 44 58 47 34 32 36 49 56 73 67 68 62 70 66 71 66 60 56 54 56 70 77 78 78 74 67 74 86 87
96 85 75 68 80 87 81 84 81 75 69 54 41 40 52 53 56 54 30 31 66 56 40 50 42 55 65 75 70 67 56 54 73 78 69 64 59 44 52 62 67 82 90
98 83 70 66 61 60 71 83 85 80 74 67 60 49 55 63 62 60 57 44 29 33 35 28 33 26 71 78 70 68 52 67 84 86 82 54 35 29 24 34 62 82 92
100 82 77 80 93 99 90 87 84 83 83 79 72 72 67 63 65 59 61 81 36 25 23 26 25 27 62 79 74 70 58 77 93 89 73 63 52 39 34 28 43 82 90
100 98 89 94 92 93 94 98 99 98 88 85 84 79 75 69 68 64 46 58 74 65 42 44 69 63 52 68 78 72 73 83 91 94 90 64 44 40 37 30 29 74 82
97 100 99 93 90 83 75 80 89 91 97 98 94 88 81 76 71 72 64 44 42 59 70 71 66 67 68 72 81 81 73 82 87 99 86 69 45 61 62 36 30 43 83
94 96 99 100 100 95 91 77 78 88 87 84 86 89 90 88 83 78 75 66 44 39 45 66 63 66 69 79 84 78 71 82 89 84 93 75 51 65 76 78 56 32 81
65 78 86 90 99 97 93 89 89 90 85 85 88 87 84 92 96 87 82 80 63 56 41 39 52 64 73 84 82 73 70 74 82 80 83 78 58 64 69 80 69 39 67
35 41 53 71 85 90 94 93 93 90 89 85 85 83 84 88 85 92 94 86 83 77 60 43 42 58 74 79 81 82 75 64 71 82 82 80 72 64 65 71 65 80 77
27 28 30 38 58 76 87 91 94 95 91 90 88 88 87 89 88 86 97 96 93 87 78 72 48 48 62 76 83 78 69 66 67 81 78 72 80 67 64 72 80 66 81
26 25 26 26 30 41 60 77 87 99 100 100 97 91 91 90 89 88 88 98 93 98 93 82 75 62 42 54 70 90 79 64 71 84 72 71 73 74 63 71 84 73 61
23 22 22 23 23 25 31 43 62 79 90 94 99 100 98 95 91 93 91 88 92 97 100 97 88 80 55 46 68 87 84 78 55 76 71 70 69 70 73 74 76 86 76
22 21 20 20 20 20 20 22 28 44 64 78 88 98 99 100 100 99 97 94 99 100 98 100 100 92 83 68 52 75 81 87 78 67 66 68 69 67 72 66 76 82 84
20 18 17 17 17 18 18 17 17 17 21 31 51 67 76 91 98 100 100 100 100 99 98 99 99 100 93 87 80 66 68 78 77 75 69 69 72 67 67 75 79 77 77
19 17 16 15 14 14 14 14 15 14 13 14 15 19 29 43 58 76 93 99 100 100 96 96 98 96 100 91 85 82 77 78 77 76 78 79 71 78 69 71 80 73 60
18 16 14 13 12 12 11 11 11 11 11 11 12 12 11 12 15 24 45 53 87 96 99 100 98 96 100 99 86 86 85 82 78 76 74 81 81 77 81 72 79 83 75
16 14 13 12 12 11 10 10 9 9 9 9 9 9 9 9 8 9 10 13 20 51 74 94 100 100 100 98 96 90 88 90 83 80 78 80 83 80 80 83 80 76 81
16 13 12 11 10 10 10 10 10 9 9 9 9 8 8 8 7 7 7 7 8 9 18 32 78 98 100 98 100 94 95 97 93 83 83 76 82 85 81 85 80 79 78
16 13 12 11 11 10 11 11 11 11 10 9 9 8 8 8 7 7 7 7 6 6 7 8 18 53 87 100 97 99 100 100 97 93 89 84 74 81 85 93 90 81 78
19 16 15 14 13 12 11 10 10 9 8 8 7 7 7 7 7 6 6 6 6 6 6 6 8 10 36 87 96 100 100 100 97 78 76 80 78 67 79 82 93 90 89
21 19 18 17 16 15 14 12 11 10 9 7 7 6 6 6 7 7 7 7 7 7 6 6 6 9 11 27 71 99 100 100 97 94 89 83 76 66 53 61 69 92 95
25 23 22 20 20 19 17 16 15 15 13 12 13 10 8 9 9 10 11 11 12 12 10 9 10 11 12 10 17 62 100 100 100 98 88 85 86 83 69 54 50 60 82
29 26 26 25 24 22 21 21 19 18 21 18 17 16 14 12 13 15 17 17 16 16 18 19 15 17 18 16 13 16 43 77 96 99 100 89 87 78 81 70 60 53 74
34 31 30 29 28 25 24 24 24 26 25 25 25 24 22 20 18 19 21 23 23 22 22 22 23 22 23 25 15 15 21 47 56 94 99 98 100 91 85 76 83 82 85

GFSSE_850_rhum_324.txt.gz
RH
99 97 87 88 88 88 88 87 90 86 65 50 41 54 54 41 28 45 75 79 64 61 64 67 72 60 56 56 65 69 72 67 65 73 78 77 72 70 72 75 80 88 80
99 100 99 98 85 89 89 88 83 83 56 41 44 58 53 45 34 36 67 85 73 65 49 60 72 56 62 70 71 71 77 81 83 79 77 78 73 68 74 80 81 90 77
99 100 100 100 96 87 87 88 83 73 58 52 61 69 62 62 51 33 32 48 55 70 54 68 58 62 62 71 57 54 66 77 82 85 87 80 70 67 80 85 89 86 82
99 100 93 91 97 96 68 76 93 87 76 66 73 76 72 73 70 55 41 41 46 41 42 52 55 57 62 72 60 62 64 62 64 80 79 73 65 68 69 78 89 91 87
100 95 84 94 94 100 100 100 91 86 81 71 75 76 70 71 68 62 79 54 39 32 28 30 32 33 68 72 62 71 80 71 67 64 60 53 42 35 53 65 73 86 93
99 88 79 92 98 83 96 84 89 86 86 83 81 84 78 77 74 69 61 74 76 46 28 29 27 29 70 76 66 81 84 82 73 64 60 60 51 43 38 48 64 78 86
100 98 91 84 86 86 84 81 78 84 77 80 84 80 78 82 82 79 69 66 54 62 63 65 62 54 54 78 77 76 86 86 80 72 70 62 50 48 50 39 52 74 76
99 100 100 96 93 88 87 85 77 77 77 77 83 87 80 78 79 77 79 78 64 62 65 67 72 66 65 64 79 79 88 92 87 84 83 72 63 59 62 51 34 63 75
91 95 98 94 100 100 99 99 94 85 80 80 83 88 83 80 82 84 82 82 75 69 64 62 59 61 70 73 80 82 82 93 88 86 87 76 69 65 64 63 54 36 83
56 71 84 91 98 98 100 100 100 97 90 89 88 86 84 90 88 88 84 82 82 77 79 69 64 54 57 68 79 84 76 76 89 87 80 81 77 72 66 65 64 43 74
30 32 39 53 67 81 88 93 99 99 96 96 94 96 94 97 92 88 84 88 88 90 88 85 77 64 68 70 72 79 77 73 78 83 71 73 76 74 63 67 68 59 52
25 25 25 26 29 37 50 64 74 84 92 99 98 96 98 99 100 100 99 100 96 92 91 89 86 85 73 78 81 77 78 80 78 78 82 76 76 75 62 67 71 72 57
22 21 21 21 22 23 25 29 36 49 66 80 87 95 98 99 100 100 100 100 100 100 98 95 92 88 88 87 70 80 78 72 67 72 72 81 80 81 69 69 74 71 76
22 21 21 20 20 20 20 21 22 24 27 35 50 65 71 81 92 96 100 100 100 100 100 99 98 97 96 94 91 80 73 76 67 77 70 80 71 64 77 72 66 72 76
21 20 19 18 18 18 18 18 18 18 18 18 19 23 29 40 52 54 63 78 90 97 99 99 98 99 100 100 100 97 89 71 75 83 72 70 76 65 77 75 71 72 73
20 18 17 16 15 14 14 14 14 14 14 14 14 14 14 14 16 20 27 35 39 53 67 86 96 97 98 97 98 99 96 94 70 76 87 83 82 71 77 76 70 67 70
18 16 15 14 13 13 12 12 11 11 11 11 11 11 11 11 11 11 12 12 14 19 25 34 43 63 86 94 95 97 98 92 89 79 75 87 87 81 78 79 76 67 70
16 14 13 12 12 12 12 12 12 12 12 12 11 11 11 10 10 10 10 10 10 10 11 12 16 25 30 50 75 87 92 96 87 84 80 76 85 87 82 83 77 74 72
15 14 13 12 12 12 12 13 13 13 12 12 11 11 10 10 10 10 9 9 9 9 9 9 10 10 10 13 23 43 67 88 86 85 82 84 77 86 88 85 82 78 73
15 13 12 12 13 13 14 14 13 12 12 11 10 10 9 9 9 9 8 8 8 8 8 8 8 8 8 8 9 11 20 46 76 83 84 81 84 82 83 84 87 84 78
15 14 13 14 14 15 15 14 12 12 11 10 9 9 9 8 8 8 7 7 7 7 7 6 7 7 7 7 8 11 14 14 55 76 82 84 97 95 88 85 85 87 86
16 15 16 16 16 16 15 13 11 9 9 9 9 8 7 7 6 6 6 6 6 6 6 6 7 7 7 8 10 11 18 14 36 98 98 82 87 91 92 92 88 87 87
18 18 18 17 18 17 15 14 12 10 9 8 7 8 8 7 6 6 6 6 6 8 9 9 9 10 10 9 12 52 98 98 48 26 87 94 100 100 100 100 97 94 91
20 20 20 20 21 20 19 17 14 14 13 13 12 11 10 8 6 6 6 6 6 7 8 13 17 16 18 14 12 23 38 53 67 39 11 21 68 81 98 98 100 100 97
23 23 23 23 24 23 22 21 20 20 19 18 16 12 10 8 7 7 6 6 7 10 12 15 17 21 23 25 23 24 30 32 30 78 84 24 13 34 92 100 100 99 100
26 26 26 27 27 27 27 26 25 24 24 22 20 17 14 11 10 10 9 9 10 12 16 19 20 22 25 29 28 29 39 82 79 93 91 42 35 10 19 71 92 99 99